DECAYED

OBJECT AK, 58289 (Decayed)

Orbit data source: Space-Track

You're viewing an Uncataloged Satellite

Recently launched and/or uncataloged satellites may have evolving metadata. Metadata may include but not limited to: Owner, Maufacturer, Bus, Motor, and Mission.

OBJECT AK, 58289 was a satellite in SSO that was launched on Sat, 11 Nov 2023 UTC via an FALCON 9 launch vehicle from the Air Force Western Test Range (AFWTR). Unknown objects in Earth's orbit typically refer to objects detected orbiting the Earth but have not yet been identified or cataloged. These objects could be anything from previously untracked satellites, spent rocket stages, debris from satellite collisions, or even natural meteoroids temporarily captured by Earth's gravity. This object's orbit decayed before it could be identified.

Not visible in the next 10 days
Identifier
58289, 2023-174AK
Orbit
Decayed
Country
Flag of TBDTBD
Related business
None
Manufacturer
Hello Space
Mission
Decayed Commercial Technology
Bus & Motor
POCKETQUBE 2P, Unknown motor
Mass
0.5 kg wet, 0.5 kg dry
Launch date (UTC)
2023-11-11 (2 years ago)
Launch vehicle
FALCON 9
Launch site
Air Force Western Test Range (AFWTR)
Object type
Unknown
Shape & HBR
Box + 2 Pan, 0.1 m
Radar Cross Section
0.080 m², Small (<0.1 m²)

Expand to show TLE details & history
Last TLE update: 1 year ago

TLE from 1 year ago
0 OBJECT AK
1 58289U 23174AK  24167.15955496  .03326691  28310-1  45560-2 0  9990
2 58289  97.4314 247.4797 0022483 266.0159  93.8555 16.10939344 33764
Epoch: 2024-06-15T03:49Z
TLE epoch observation values (Epoch: 2024-06-15T03:49:45.548Z)
Latitude
-0°
Longitude
-73.88744°
Altitude
248.514 km
Speed
7.757 km/s
True Right ascension
16h 29m 55s
True Declination
0° 00' 00"
Sunlit
Object was in full shadow at epoch
Visualization orbit readout
Latitude
Unknown
Longitude
Unknown
Altitude
Unknown
Speed
Unknown
Apparent Right ascension
Unknown
Apparent Declination
Unknown
Sunlit
N/A
Visualization observer readout
Local Sidereal Time
14:27:23
Azimuth
Unknown
Elevation
Unknown
Doppler factor
Unknown
Orbital elements
Apogee altitude
255.997 km
Perigee altitude
226.232 km
Semi-major axis
6,619.252 km
Eccentricity
0.00225
Inclination
97.4314°
RAAN
247.4797°
Arg. of periapsis
266.0159°
True anomaly
94.1125°
Mean anomaly
93.8555°
Eccentric anomaly
93.98401°
Mean motion
4.03023 °/min
Orbital period
89.32 mins
BSTAR
0.004556
Loading maneuver chart data...
Computing Atmospheric mass density...
Loading historical data...
Loading historical data...
Loading historical data...
Loading historical data...
Loading historical data...
Loading historical data...
Loading historical data...

Documentation

Showing up to 5 results
|